Location: Unspecified
(47.6577°N, 23.5639°E)
Time: 20:37:46
(UTC+03:00)

ISS - Pass Details

Date: 04 February 2017
Orbit: 402 x 409 km, 51.6° (Epoch: 25 May)

Event Time Altitude Azimuth Distance (km) Brightness Sun altitude
Rises 18:58:44 0° 267° (W) 2,334 1.9 -14.9°
Reaches altitude 10° 19:00:52 10° 274° (W) 1,471 0.3 -15.3°
Maximum altitude 19:04:04 46° 349° (N) 559 -3.2 -15.8°
Enters shadow 19:05:10 32° 40° (NE) 728 -3.0 -16.0°
